• In Deutschland
  • Länderverzeichnis
  • Für 7 Tage
  • Wassertemperatur
  • Satellitenkarten
  • Wetterkarte
  • Widgets
  • user-avatar
    Anmelden

    Stündliche Wetter Olbia

    Heute, 19 Januar, Freitag

    Zeit Temperatur Niederschläge Wind Luftdruck Luftfeuchtigkeit
    00:00 +10°C° 0 mm 7 m/S 763 mmHg 85%
    01:00 +10°C° 0 mm 7 m/S 762 mmHg 84%
    02:00 +10°C° 0 mm 7 m/S 762 mmHg 84%
    03:00 +10°C° 0 mm 7 m/S 761 mmHg 84%
    04:00 +10°C° 0 mm 7 m/S 761 mmHg 85%
    05:00 +10°C° 0 mm 7 m/S 761 mmHg 85%
    06:00 +10°C° 0 mm 7 m/S 761 mmHg 85%
    07:00 +10°C° 0 mm 7 m/S 760 mmHg 85%
    08:00 +11°C° 0 mm 7 m/S 760 mmHg 83%
    09:00 +11°C° 0 mm 7 m/S 760 mmHg 81%
    10:00 +12°C° 0 mm 7 m/S 760 mmHg 79%
    11:00 +12°C° 0 mm 7 m/S 760 mmHg 77%
    12:00 +14°C° 0 mm 7 m/S 760 mmHg 75%
    13:00 +14°C° 0 mm 7 m/S 759 mmHg 74%
    14:00 +14°C° 0 mm 7 m/S 759 mmHg 74%
    15:00 +14°C° 0 mm 7 m/S 759 mmHg 74%
    16:00 +12°C° 0 mm 7 m/S 759 mmHg 75%
    17:00 +12°C° 0 mm 8 m/S 759 mmHg 74%
    18:00 +12°C° 0 mm 8 m/S 759 mmHg 73%
    19:00 +11°C° 0 mm 8 m/S 759 mmHg 72%
    20:00 +11°C° 0 mm 8 m/S 759 mmHg 69%
    21:00 +11°C° 0 mm 8 m/S 759 mmHg 66%
    22:00 +11°C° 0 mm 9 m/S 760 mmHg 63%
    23:00 +11°C° 0 mm 8 m/S 760 mmHg 62%

    Morgen, 20 Januar, Samstag

    Zeit Temperatur Niederschläge Wind Luftdruck Luftfeuchtigkeit
    00:00 +11°C° 0 mm 8 m/S 760 mmHg 61%
    01:00 +11°C° 0 mm 8 m/S 760 mmHg 60%
    02:00 +10°C° 0 mm 9 m/S 760 mmHg 62%
    03:00 +10°C° 0 mm 9 m/S 760 mmHg 65%
    04:00 +10°C° 0 mm 9 m/S 760 mmHg 67%
    05:00 +10°C° 0 mm 9 m/S 760 mmHg 68%
    06:00 +10°C° 0 mm 9 m/S 760 mmHg 70%
    07:00 +9°C° 0 mm 8 m/S 760 mmHg 71%
    08:00 +10°C° 0 mm 9 m/S 760 mmHg 66%
    09:00 +10°C° 0 mm 9 m/S 761 mmHg 62%
    10:00 +11°C° 0 mm 9 m/S 761 mmHg 57%
    11:00 +11°C° 0 mm 9 m/S 761 mmHg 56%
    12:00 +12°C° 0 mm 9 m/S 760 mmHg 55%
    13:00 +12°C° 0 mm 9 m/S 760 mmHg 54%
    14:00 +12°C° 0 mm 9 m/S 760 mmHg 55%
    15:00 +12°C° 0 mm 10 m/S 760 mmHg 57%
    16:00 +12°C° 0 mm 10 m/S 759 mmHg 58%
    17:00 +11°C° 0 mm 10 m/S 759 mmHg 65%
    18:00 +11°C° 0 mm 10 m/S 759 mmHg 71%
    19:00 +9°C° 0 mm 10 m/S 759 mmHg 78%
    20:00 +11°C° 0,1 mm 10 m/S 759 mmHg 79%
    21:00 +11°C° 0,1 mm 10 m/S 759 mmHg 80%
    22:00 +11°C° 0,1 mm 10 m/S 759 mmHg 82%
    23:00 +12°C° 0 mm 10 m/S 758 mmHg 81%

    übermorgen, 21 Januar, Sonntag

    Zeit Temperatur Niederschläge Wind Luftdruck Luftfeuchtigkeit
    00:00 +12°C° 0 mm 10 m/S 758 mmHg 80%
    01:00 +12°C° 0 mm 11 m/S 757 mmHg 79%
    02:00 +13°C° 0 mm 11 m/S 757 mmHg 79%
    03:00 +13°C° 0 mm 11 m/S 756 mmHg 79%
    04:00 +13°C° 0 mm 11 m/S 756 mmHg 79%
    05:00 +13°C° 0 mm 11 m/S 756 mmHg 78%
    06:00 +13°C° 0 mm 11 m/S 757 mmHg 77%
    07:00 +13°C° 0 mm 11 m/S 757 mmHg 77%
    08:00 +13°C° 0 mm 10 m/S 757 mmHg 76%
    09:00 +13°C° 0 mm 10 m/S 758 mmHg 76%
    10:00 +13°C° 0 mm 10 m/S 758 mmHg 75%
    11:00 +14°C° 0 mm 10 m/S 758 mmHg 73%
    12:00 +15°C° 0 mm 9 m/S 759 mmHg 71%
    13:00 +16°C° 0 mm 9 m/S 759 mmHg 68%
    14:00 +16°C° 0 mm 9 m/S 758 mmHg 68%
    15:00 +16°C° 0 mm 9 m/S 758 mmHg 68%
    16:00 +16°C° 0 mm 9 m/S 758 mmHg 68%
    17:00 +15°C° 0 mm 9 m/S 758 mmHg 72%
    18:00 +15°C° 0 mm 8 m/S 759 mmHg 75%
    19:00 +15°C° 0 mm 8 m/S 759 mmHg 78%
    20:00 +15°C° 0 mm 8 m/S 759 mmHg 78%
    21:00 +15°C° 0 mm 7 m/S 760 mmHg 78%
    22:00 +15°C° 0 mm 7 m/S 760 mmHg 79%
    23:00 +15°C° 0 mm 6 m/S 760 mmHg 79%

    22 Januar, Montag

    Zeit Temperatur Niederschläge Wind Luftdruck Luftfeuchtigkeit
    00:00 +15°C° 0 mm 6 m/S 760 mmHg 80%
    01:00 +15°C° 0 mm 5 m/S 760 mmHg 80%
    02:00 +14°C° 0 mm 5 m/S 760 mmHg 80%
    03:00 +14°C° 0 mm 5 m/S 760 mmHg 80%
    04:00 +14°C° 0 mm 5 m/S 760 mmHg 80%
    05:00 +14°C° 0 mm 6 m/S 761 mmHg 81%
    06:00 +14°C° 0 mm 6 m/S 761 mmHg 81%
    07:00 +14°C° 0 mm 6 m/S 761 mmHg 81%
    08:00 +14°C° 0 mm 6 m/S 761 mmHg 79%
    09:00 +15°C° 0 mm 7 m/S 762 mmHg 76%
    10:00 +15°C° 0 mm 7 m/S 762 mmHg 73%
    11:00 +16°C° 0 mm 7 m/S 762 mmHg 71%
    12:00 +16°C° 0 mm 7 m/S 762 mmHg 69%
    13:00 +16°C° 0 mm 7 m/S 762 mmHg 67%
    14:00 +16°C° 0 mm 7 m/S 762 mmHg 69%
    15:00 +15°C° 0 mm 6 m/S 762 mmHg 72%
    16:00 +15°C° 0 mm 6 m/S 762 mmHg 74%
    17:00 +14°C° 0 mm 5 m/S 762 mmHg 78%
    18:00 +14°C° 0 mm 5 m/S 762 mmHg 81%
    19:00 +13°C° 0 mm 4 m/S 763 mmHg 85%
    20:00 +13°C° 0 mm 4 m/S 763 mmHg 87%
    21:00 +13°C° 0 mm 4 m/S 763 mmHg 88%
    22:00 +13°C° 0 mm 4 m/S 763 mmHg 90%
    23:00 +13°C° 0 mm 4 m/S 763 mmHg 89%

    23 Januar, Dienstag

    Zeit Temperatur Niederschläge Wind Luftdruck Luftfeuchtigkeit
    00:00 +13°C° 0 mm 4 m/S 763 mmHg 88%
    01:00 +13°C° 0 mm 5 m/S 763 mmHg 87%
    02:00 +13°C° 0 mm 5 m/S 763 mmHg 86%
    03:00 +13°C° 0 mm 5 m/S 763 mmHg 86%
    04:00 +13°C° 0 mm 5 m/S 763 mmHg 85%
    05:00 +13°C° 0 mm 5 m/S 763 mmHg 85%
    06:00 +13°C° 0 mm 5 m/S 763 mmHg 85%
    07:00 +13°C° 0 mm 5 m/S 763 mmHg 85%
    08:00 +14°C° 0 mm 5 m/S 764 mmHg 81%
    09:00 +14°C° 0 mm 5 m/S 764 mmHg 78%
    10:00 +15°C° 0 mm 5 m/S 765 mmHg 74%
    11:00 +17°C° 0 mm 4 m/S 765 mmHg 71%
    12:00 +18°C° 0 mm 4 m/S 765 mmHg 67%
    13:00 +18°C° 0 mm 4 m/S 765 mmHg 64%
    14:00 +18°C° 0 mm 3 m/S 765 mmHg 65%
    15:00 +18°C° 0 mm 3 m/S 765 mmHg 66%
    16:00 +18°C° 0 mm 3 m/S 765 mmHg 67%
    17:00 +16°C° 0 mm 2 m/S 766 mmHg 76%
    18:00 +14°C° 0 mm 2 m/S 766 mmHg 84%
    19:00 +12°C° 0 mm 2 m/S 767 mmHg 93%
    20:00 +12°C° 0 mm 1 m/S 767 mmHg 94%
    21:00 +12°C° 0 mm 1 m/S 768 mmHg 94%
    22:00 +12°C° 0 mm 1 m/S 768 mmHg 95%
    23:00 +11°C° 0 mm 1 m/S 768 mmHg 95%

    24 Januar, Mittwoch

    Zeit Temperatur Niederschläge Wind Luftdruck Luftfeuchtigkeit
    00:00 +11°C° 0 mm 1 m/S 769 mmHg 95%
    01:00 +11°C° 0 mm 1 m/S 769 mmHg 95%
    02:00 +11°C° 0 mm 1 m/S 769 mmHg 94%
    03:00 +11°C° 0 mm 1 m/S 769 mmHg 94%
    04:00 +11°C° 0 mm 1 m/S 769 mmHg 93%
    05:00 +11°C° 0 mm 1 m/S 769 mmHg 93%
    06:00 +10°C° 0 mm 1 m/S 769 mmHg 93%
    07:00 +10°C° 0 mm 1 m/S 769 mmHg 93%
    08:00 +12°C° 0 mm 1 m/S 769 mmHg 86%
    09:00 +14°C° 0 mm 1 m/S 770 mmHg 80%
    10:00 +15°C° 0 mm 1 m/S 770 mmHg 74%
    11:00 +18°C° 0 mm 1 m/S 770 mmHg 68%
    12:00 +19°C° 0 mm 1 m/S 769 mmHg 62%
    13:00 +21°C° 0 mm 1 m/S 769 mmHg 55%
    14:00 +19°C° 0 mm 2 m/S 769 mmHg 59%
    15:00 +19°C° 0 mm 2 m/S 769 mmHg 63%
    16:00 +18°C° 0 mm 2 m/S 769 mmHg 66%
    17:00 +16°C° 0 mm 2 m/S 769 mmHg 75%
    18:00 +14°C° 0 mm 2 m/S 769 mmHg 84%
    19:00 +12°C° 0 mm 1 m/S 769 mmHg 92%
    20:00 +12°C° 0 mm 1 m/S 769 mmHg 92%
    21:00 +12°C° 0 mm 1 m/S 769 mmHg 92%
    22:00 +12°C° 0 mm 1 m/S 769 mmHg 92%
    23:00 +11°C° 0 mm 1 m/S 769 mmHg 92%
    Mehr zeigen